sat.trackr.live / text

‹ back to catalog

STARLINK-5488

NORAD 57250 · 2023-094AJ

PAYLOAD ACTIVE UNKNOWN

§ Identity

Operator
Country
US
Launch date
2023-07-07
Launch site
AFWTR
Launch vehicle
Mass (kg)
RCS (m²)

Purposes: comms

External: N2YO · Heavens-Above · Gunter

§ Orbital elements

Epoch: 2026-05-25T03:29:01.735872Z

Period
94.27 min
Inclination
43.0032°
Eccentricity
0.0001075
Mean motion
15.27578559 rev/d
Perigee alt
482.3 km
Apogee alt
483.8 km
Semi-major
6,861.2 km
B*
3.4635e-5
RAAN
308.0409°
Arg perigee
266.8779°
Mean anomaly
93.1949°
Rev number
15,893

§ Raw data

STARLINK-54881 57250U 23094AJ  26145.14515898  .00000691  00000+0  34635-4 0  99962 57250  43.0032 308.0409 0001075 266.8779  93.1949 15.27578559158930

JSON: /api/v1/satellites/57250 · /tle

For live sub-satellite position, see the globe view (requires WebGL).

§ Visibility from observer

Set your observer location to see the next 7 days of passes ≥ 10°. The values pass through the URL so the page stays shareable.

No JS? Fill the form by hand. The geolocation button needs JavaScript.